Regional Weather Roundup
Issued by NWS

Home | Current Version | Previous Version | Text Only | Print | Product List | Glossary Off
Versions: 1 2 3 4 5 6 7 8 9 10 11 12 13 14 15 16 17 18 19 20 21 22 23 24 25 26 27 28 29 30 31 32 33 34 35 36 37 38 39 40 41 42 43 44 45 46 47 48 49 50

000
ASUS43 KFSD 282002
RWRSD

WEATHER ROUNDUP FOR SOUTH DAKOTA
NATIONAL WEATHER SERVICE SIOUX FALLS SD
300 PM CDT FRI AUG 28 2015

NOTE: "FAIR" INDICATES FEW OR NO CLOUDS BELOW 12,000 FEET WITH NO
SIGNIFICANT WEATHER AND/OR OBSTRUCTIONS TO VISIBILITY.


SDZ001>005-009-010-012>017-282100-
NORTHWEST AND NORTH CENTRAL SOUTH DAKOTA

CITY           SKY/WX    TMP DP  RH WIND       PRES   REMARKS
BUFFALO          N/A     87  48  25 W12       29.94S
FAITH            N/A     85  60  42 SW9       29.97
MOBRIDGE       SUNNY     81  71  71 SE14      29.92F
$$

SDZ012>016-024>037-041>051-057-063-072>074-282100-
SOUTHWEST AND SOUTH CENTRAL SOUTH DAKOTA

CITY           SKY/WX    TMP DP  RH WIND       PRES   REMARKS
RAPID CTY ARPT SUNNY     85  56  37 N8        30.04S
PIERRE         SUNNY     79  66  64 CALM      29.96F
CUSTER         SUNNY     81  43  26 CALM      30.20S
ELLSWORTH AFB  SUNNY     86  51  30 N9        30.03F
PHILIP         SUNNY     80  66  62 SW6       29.99F
PINE RIDGE     SUNNY     85  53  33 N3        30.06S
WINNER         MOCLDY    76  64  66 MISG      30.00F
$$

SDZ004>011-016>023-039-040-282100-
NORTHEAST SOUTH DAKOTA

CITY           SKY/WX    TMP DP  RH WIND       PRES   REMARKS
ABERDEEN       PTSUNNY   77  67  71 S8        29.94F
WATERTOWN      PTSUNNY   76  64  66 S7        29.98R
BROOKINGS      CLOUDY    72  63  73 E5        29.99S
$$

SDZ017-020-022-023-036>040-048>070-282100-
SOUTHEAST SOUTH DAKOTA

CITY           SKY/WX    TMP DP  RH WIND       PRES   REMARKS
SIOUX FALLS    CLOUDY    69  62  78 NE15      29.95R
HURON          MOSUNNY   79  65  62 E7        29.95S
CHAMBERLAIN    MOSUNNY   74  64  70 CALM      29.98S
MITCHELL       MOSUNNY   78  64  61 NE5       29.96F
YANKTON        CLOUDY    72  63  73 NE14      29.93R
$$

ABBREVIATIONS USED IN REMARKS
   TC - TEMPERATURE IN CELSIUS
  WCI - WIND CHILL INDEX
   HX - HEAT INDEX
  VSB - VISIBILITY



USA.gov is the U.S. government's official web portal to all federal, state and local government web resources and services.